Regional Weather Roundup
Issued by NWS Albany, NY

Home | Current Version | Previous Version | Text Only | Print | Product List | Glossary On
Versions: 1 2 3 4 5 6 7 8 9 10 11 12 13 14 15 16 17 18 19 20 21 22 23 24 25 26 27 28 29 30 31 32 33 34 35 36 37 38 39 40 41 42 43 44 45 46 47 48 49 50
000
ASUS41 KALY 060910
RWRALY

NEW YORK STATE HOURLY WEATHER ROUNDUP
NATIONAL WEATHER SERVICE ALBANY NY
500 AM EDT WED MAY 06 2015

NOTE: "FAIR" INDICATES FEW OR NO CLOUDS BELOW 12,000 FEET WITH NO
SIGNIFICANT WEATHER AND/OR NO OBSTRUCTIONS TO VISIBILITY.

NYZ032-033-038>043-046>054-057>066-NYZ062>081-061000-
EAST


CITY           SKY/WX    TMP DP  RH WIND       PRES   REMARKS
ALBANY         CLOUDY    57  38  48 N3        30.27S
GLENS FALLS    PTCLDY    45  39  79 N3        30.27S
POUGHKEEPSIE   CLOUDY    62  44  51 N6        30.23R
NEWBURGH       CLOUDY    64  43  45 NE12      30.25R
MONTGOMERY     CLOUDY    59  50  72 NE8       30.22F
WHITE PLAINS   CLOUDY    65  36  34 N6        30.20S
ISLIP          CLOUDY    60  51  72 N3        30.19R
NEW YORK CITY  CLOUDY    68  37  32 N9        30.19S
CENTRAL PARK   CLOUDY    69  37  30 VRB5      30.23R
$$

NYZ005>009-017-018-044>046-055-056-061000-
CENTRAL


CITY           SKY/WX    TMP DP  RH WIND       PRES   REMARKS
FULTON         PTCLDY    42  38  85 CALM      30.29S
SYRACUSE       MOCLDY    50  38  63 CALM      30.28S
ROME           PTCLDY    45  40  82 CALM      30.30S
ELMIRA         CLOUDY    53  51  93 W6        30.29R
BINGHAMTON     LGT RAIN  52  48  86 CALM      30.27S
MONTICELLO     CLOUDY    50  46  87 NE5       30.26F
$$

NYZ026>034-041>043-061000-
NORTH


CITY           SKY/WX    TMP DP  RH WIND       PRES   REMARKS
WATERTOWN      FAIR      37  35  92 CALM      30.28F
FORT DRUM      NOT AVBL
MASSENA        CLEAR     38  36  92 CALM      30.30S
SARANAC LAKE   CLEAR     28  26  92 CALM      30.28S
PLATTSBURGH    CLEAR     44  36  73 CALM      30.28R
$$

NYZ001>004-010>016-019>021-061000-
WEST


CITY           SKY/WX    TMP DP  RH WIND       PRES   REMARKS
NIAGARA FALLS  CLOUDY    53  46  77 E5        30.25F
BUFFALO        CLOUDY    55  49  80 NE6       30.25F
DUNKIRK        CLOUDY    54  53  97 NE5       30.24S FOG
JAMESTOWN      CLOUDY    54  52  94 E5        30.24S
WELLSVILLE     LGT RAIN  54  52  93 E6        30.28S FOG
ROCHESTER      CLOUDY    55  39  54 NE5       30.28S
PENN YAN       CLOUDY    53  51  93 SW5       30.29R
$$

             KEY
       WCI = WIND CHILL INDEX
       VSB = VISIBILITY
       HX  = HEAT INDEX
$$


USA.gov is the U.S. government's official web portal to all federal, state and local government web resources and services.